EHI
3 6 10 8 5 4 4 6 5 4 6 6 5 3 3 3 2 1 0 0 0 0 0 1 1 1 0 0 0 0 0 0 0 0 0 0 0 0 0 0 0 0 0
4 6 9 8 5 4 4 5 5 5 6 6 6 5 4 3 3 1 0 0 0 0 0 0 0 0 0 0 0 0 0 0 0 0 0 0 0 0 0 0 0 0 0
5 7 8 7 6 5 5 6 7 6 6 6 6 6 5 4 3 2 0 0 0 0 0 0 0 0 0 0 0 0 0 0 0 0 0 0 0 0 0 0 0 0 0
5 7 7 7 7 6 7 8 9 8 7 6 5 6 6 4 3 1 1 1 0 0 0 0 0 0 0 0 0 0 0 0 0 0 0 0 0 0 0 0 0 0 0
7 7 8 9 9 8 8 9 10 10 8 6 5 5 7 6 3 2 2 2 1 1 0 0 1 1 1 0 0 0 0 0 0 0 0 0 0 0 0 0 0 0 0
8 8 9 10 9 8 9 9 11 11 9 7 5 5 7 6 4 2 2 2 2 2 1 0 1 2 1 0 0 0 0 0 0 0 0 0 0 0 0 0 1 0 0
8 9 10 10 9 8 8 10 10 10 10 8 5 4 5 4 3 2 1 1 1 1 1 0 1 2 2 1 0 0 0 0 0 0 0 0 0 0 0 0 0 0 0
9 11 11 10 8 7 8 10 10 9 9 8 6 4 4 3 2 2 1 0 0 1 1 0 0 1 1 1 0 0 0 0 0 0 0 0 0 0 0 0 0 0 0
12 13 13 11 8 7 8 8 9 9 8 8 6 5 4 2 2 2 1 0 0 1 1 1 0 0 0 0 0 0 0 0 0 0 0 0 0 0 0 0 0 0 0
11 12 12 11 9 6 5 5 6 7 7 6 6 4 2 1 1 2 1 0 0 1 1 1 0 0 0 0 0 0 0 0 0 0 0 0 0 0 0 0 0 0 0
7 7 8 9 9 6 4 2 3 4 4 4 4 2 1 1 1 1 1 0 0 0 0 0 0 0 0 0 0 0 0 0 0 0 0 0 0 0 0 0 0 0 0
4 5 6 8 9 8 5 3 2 2 2 3 3 2 2 2 2 1 1 0 0 0 0 0 0 0 0 0 0 0 0 0 0 0 0 0 0 0 0 0 0 0 0
4 4 4 6 8 8 7 4 3 2 2 2 3 3 3 3 3 2 2 1 0 0 0 0 0 0 0 0 0 0 0 0 0 0 0 0 0 0 0 0 0 0 0
4 4 3 4 6 6 5 4 3 3 3 3 3 3 3 3 3 3 3 2 0 0 0 0 0 0 0 0 0 0 0 0 0 0 0 0 0 0 0 0 0 0 0
3 3 3 3 4 3 3 3 3 3 3 3 3 3 3 3 3 3 2 1 0 0 0 0 0 0 0 0 0 0 0 0 0 0 0 0 0 0 0 0 0 0 0
1 2 3 3 2 1 1 2 2 2 2 1 1 1 2 2 2 2 1 0 0 0 0 0 0 0 0 0 0 0 0 0 0 0 0 0 0 0 0 0 0 0 0
0 1 2 2 1 0 0 1 1 1 1 0 0 0 1 1 1 1 0 0 0 0 0 0 0 0 0 0 0 0 0 0 0 0 0 0 0 0 0 0 0 0 0
0 0 1 1 1 0 0 0 0 0 0 0 0 0 0 0 0 0 0 0 0 0 0 0 0 0 0 0 0 0 0 0 0 0 0 0 0 0 0 0 0 0 0
0 0 0 0 0 0 0 0 0 0 0 0 0 0 0 0 0 0 0 0 0 0 0 0 0 0 0 0 0 0 0 0 0 0 0 0 0 0 0 0 0 0 0
0 0 0 0 0 0 0 0 0 0 0 0 0 0 0 0 0 0 0 0 0 0 0 0 0 0 0 0 0 0 0 0 0 0 0 0 0 0 0 0 0 0 0
0 0 0 0 0 0 0 0 0 0 0 0 0 0 0 0 0 0 0 0 0 0 0 0 0 0 0 0 0 0 0 0 0 0 0 0 0 0 0 0 0 0 0
0 0 0 0 0 0 0 0 0 0 0 0 0 0 0 0 0 0 0 0 0 0 0 0 0 0 0 0 0 0 0 0 0 0 0 0 0 0 0 0 0 0 0
0 0 0 0 0 0 0 0 0 0 0 0 0 0 0 0 0 0 0 0 0 0 0 0 0 0 0 0 0 0 0 0 0 0 0 0 0 0 0 0 0 0 0
0 0 0 0 0 0 0 0 0 0 0 0 0 0 0 0 0 0 0 0 0 0 0 0 0 0 0 0 0 0 0 0 0 0 0 0 0 0 0 0 0 0 0
0 0 0 0 0 0 0 0 0 0 0 0 0 0 0 0 0 0 0 0 0 0 0 0 0 0 0 0 0 0 0 0 0 0 0 0 0 0 0 0 0 0 0
0 0 0 0 0 0 0 0 0 0 0 0 0 0 0 0 0 0 0 0 0 0 0 0 0 0 0 0 0 0 0 0 0 0 0 0 0 0 0 0 0 0 0
Wind_Speed
3 3 5 4 5 6 7 7 7 7 8 8 8 8 8 8 8 8 8 8 8 7 8 8 8 8 9 9 9 9 9 9 9 9 8 8 7 7 7 5 3 5 8
4 5 6 5 5 6 7 7 6 6 7 8 8 8 8 8 8 8 7 8 7 7 8 7 7 8 8 8 8 8 8 8 8 7 5 5 5 5 5 5 5 5 6
5 5 6 5 5 6 7 7 7 7 7 7 8 8 8 7 7 7 7 7 7 7 7 8 7 8 8 7 7 7 7 7 7 5 1 3 6 5 5 4 5 5 5
4 4 5 5 5 5 6 7 7 7 7 7 7 7 7 7 7 7 6 6 7 7 7 7 8 7 7 7 7 7 6 6 5 1 1 4 4 5 4 4 5 5 5
4 4 5 5 4 5 5 6 6 6 6 6 6 7 7 7 7 6 6 6 6 6 7 7 7 7 7 6 6 6 6 5 3 2 3 3 3 5 4 5 5 5 5
3 3 5 4 5 4 4 5 6 6 6 6 6 6 6 6 6 6 6 6 6 6 6 6 6 6 6 6 5 5 6 4 4 3 3 2 3 5 4 4 4 4 4
3 3 5 4 4 4 4 4 4 5 6 6 6 5 6 6 7 6 6 5 5 5 6 6 6 6 6 5 6 6 5 2 1 3 3 3 4 4 4 3 3 3 4
3 3 4 5 4 4 4 3 4 4 5 6 6 5 5 6 6 6 6 6 5 6 5 5 5 5 6 6 6 6 4 0 2 2 3 3 4 3 3 3 3 3 3
3 3 3 4 4 4 3 3 3 4 4 5 6 5 5 5 6 6 6 6 6 6 6 5 5 5 5 6 6 6 5 1 1 2 2 2 4 3 4 4 4 4 4
3 3 3 3 3 3 4 4 3 4 4 5 6 5 5 4 5 5 5 5 5 5 5 5 6 6 5 5 5 5 3 2 2 2 1 3 3 3 3 4 4 4 4
2 3 3 3 3 3 3 4 3 4 5 6 5 5 3 3 4 5 5 5 5 5 5 5 6 6 5 6 5 3 2 1 2 1 2 3 2 3 3 4 4 4 4
3 2 2 3 3 3 2 3 2 2 4 4 4 5 3 2 2 3 6 5 5 4 5 5 5 4 2 3 4 2 1 1 1 1 3 4 3 3 4 4 4 4 5
3 3 2 3 3 3 2 2 2 1 2 3 5 4 3 2 2 2 3 4 4 4 3 4 4 2 1 1 1 1 1 1 1 1 3 5 4 3 4 4 5 5 5
4 3 3 3 3 3 3 2 2 2 2 3 4 4 3 2 2 2 2 2 2 2 2 2 1 2 1 2 1 2 2 1 1 2 4 6 4 4 4 4 5 5 5
5 4 3 3 3 3 3 3 3 2 2 2 3 3 3 2 2 2 1 2 2 2 2 2 2 2 2 1 1 2 2 2 2 2 3 6 5 5 5 4 4 4 4
5 4 3 4 4 4 4 3 3 3 2 3 3 3 4 3 2 2 2 1 2 2 1 1 2 1 1 1 2 2 2 2 2 2 2 4 6 5 4 4 3 3 3
5 4 4 4 4 4 5 4 3 3 2 2 2 3 3 3 3 3 2 1 1 2 2 2 2 1 1 1 2 1 1 2 1 2 1 1 3 5 5 4 4 3 3
4 4 3 3 4 4 4 3 3 3 3 2 2 2 3 3 4 3 2 2 1 2 2 2 2 2 2 2 1 1 1 1 1 1 1 1 1 1 3 5 5 5 4
5 4 4 4 4 4 3 3 3 3 2 2 2 2 3 3 4 3 2 2 2 2 2 2 2 2 2 2 2 1 1 1 1 1 1 1 1 1 1 3 3 5 5
4 4 4 4 3 4 3 3 3 3 2 2 2 2 3 3 3 3 2 3 2 2 2 2 3 2 2 2 2 1 1 1 1 1 1 1 1 1 0 0 0 2 3
3 4 4 4 4 3 3 3 3 2 2 2 2 3 3 3 3 3 2 3 2 2 3 3 3 3 2 2 2 1 1 1 1 1 1 0 1 0 0 1 1 1 0
3 4 4 4 4 4 3 3 2 2 2 2 2 2 3 3 3 2 3 2 2 2 3 4 3 2 2 1 1 2 2 3 2 1 1 1 1 1 1 1 1 1 2
3 4 4 4 4 4 4 3 3 2 2 2 2 2 2 2 3 2 3 3 3 3 3 3 4 4 3 2 2 2 2 2 1 2 3 2 2 2 2 2 2 2 2
3 3 3 4 4 3 4 4 5 4 3 2 2 2 2 2 2 2 2 3 3 3 3 3 4 3 4 3 2 1 2 2 2 2 3 3 3 3 3 3 3 3 3
2 2 3 3 3 3 3 4 5 3 2 2 2 3 2 2 2 2 2 3 3 2 3 3 3 4 3 3 3 2 2 2 3 3 3 3 3 3 3 3 3 3 3
1 2 2 3 3 3 3 3 4 4 3 3 3 2 2 2 2 3 2 2 3 3 3 3 3 4 3 4 3 3 3 3 3 3 4 4 4 3 3 3 4 4 4
Wind_Direction
127 125 116 124 128 130 129 128 124 127 130 131 128 126 126 125 123 122 119 115 112 112 114 112 108 105 100 97 94 90 88 84 79 78 73 69 68 73 73 67 61 89 81
129 130 119 116 122 129 129 126 125 125 130 131 132 130 126 124 127 125 121 118 113 110 111 112 110 106 101 98 95 93 90 85 81 79 79 97 82 73 76 62 36 61 76
129 127 123 109 115 125 126 124 126 127 129 133 134 132 129 125 123 123 120 118 115 109 106 103 104 105 103 100 97 96 92 88 85 86 162 112 99 86 81 75 67 70 71
130 128 119 104 112 121 127 129 128 128 126 130 134 134 132 130 125 121 120 118 113 109 107 105 101 100 103 102 100 99 95 95 93 156 129 83 92 88 81 80 76 73 67
136 129 111 103 103 113 126 133 134 130 129 129 133 136 135 134 130 123 119 115 112 111 110 109 106 102 101 104 106 105 102 103 120 189 89 85 87 88 82 81 73 73 68
142 129 114 108 101 105 118 132 140 139 137 134 132 137 136 132 126 121 116 108 106 108 111 113 110 105 102 100 104 106 106 116 193 115 100 88 80 82 83 80 73 70 67
148 132 126 115 110 107 110 130 139 145 145 139 137 136 138 131 126 121 113 108 110 113 119 120 116 110 107 103 97 97 104 124 150 104 92 87 70 63 81 79 74 69 65
161 149 139 131 117 113 111 115 135 139 142 141 135 136 130 128 123 121 120 116 113 113 115 119 116 111 106 102 96 90 86 179 140 105 96 87 58 65 72 71 67 61 66
169 160 153 152 137 123 113 110 124 128 127 126 118 106 105 113 121 122 120 119 116 111 110 109 111 113 110 104 98 92 84 14 144 102 96 78 58 68 69 72 64 67 64
179 175 164 160 156 149 139 116 113 126 126 125 112 99 86 95 118 119 124 114 113 111 106 106 106 102 102 100 100 99 104 220 107 122 105 77 67 80 74 71 67 60 57
197 191 176 175 167 163 156 128 129 135 135 139 127 110 126 145 145 139 112 103 103 106 108 108 106 102 103 102 95 109 191 175 105 67 65 59 88 91 82 75 69 59 54
214 214 197 188 181 175 164 151 150 164 164 166 153 149 161 158 131 131 116 104 102 105 114 108 110 127 160 129 120 177 173 143 109 85 61 44 82 91 83 75 74 67 64
216 216 210 202 193 184 171 164 153 157 169 170 161 158 154 156 149 150 147 140 141 150 142 135 156 145 131 101 119 120 79 71 73 77 63 48 61 80 83 76 73 74 65
217 217 222 208 205 191 180 174 174 162 177 177 168 168 160 160 176 155 163 157 161 158 150 160 156 137 132 124 113 106 107 101 82 75 64 50 53 58 69 75 75 74 66
220 216 222 214 209 196 186 187 181 172 186 177 170 172 166 170 183 158 158 164 163 160 165 163 162 147 145 125 107 100 99 98 108 113 93 63 46 52 54 61 71 69 64
223 220 221 222 210 202 196 193 186 179 178 184 168 167 171 173 176 167 149 166 163 167 160 167 149 152 150 139 128 120 114 109 115 120 116 96 69 54 50 50 55 58 52
225 221 222 219 206 206 201 198 190 183 182 189 163 162 172 173 169 165 159 164 169 169 169 157 139 149 138 136 132 114 106 105 118 121 120 110 102 75 55 43 40 43 47
227 212 208 218 203 203 195 191 190 190 182 179 161 167 166 168 160 164 161 163 176 181 171 161 157 153 146 143 127 113 122 119 103 96 118 119 99 97 80 49 42 38 32
223 210 194 212 202 190 183 179 183 173 172 161 154 167 159 163 163 166 162 159 171 185 172 166 167 167 152 138 125 124 134 140 113 99 92 102 91 70 88 84 57 38 22
218 205 189 199 190 174 163 160 159 154 160 156 158 161 150 159 166 159 161 159 168 179 176 174 160 155 147 142 134 126 134 155 175 146 123 110 118 97 68 84 127 64 28
212 197 185 191 184 177 165 165 164 165 163 166 167 165 161 156 153 164 164 164 175 186 182 171 155 150 147 148 161 158 170 182 190 201 210 181 133 194 237 270 293 302 303
207 200 183 189 185 185 173 160 166 159 169 163 163 165 165 160 154 170 175 172 179 186 182 177 170 168 155 201 219 199 205 199 188 206 222 228 230 252 270 268 271 284 293
200 203 190 185 183 181 164 148 136 139 145 149 157 157 159 155 157 167 183 182 185 196 190 190 186 189 186 194 231 250 242 231 198 199 220 230 235 244 260 283 280 273 281
202 198 191 180 175 174 166 166 166 173 181 180 167 155 148 146 155 169 183 189 188 195 193 195 202 200 194 197 192 236 289 314 253 228 209 222 244 256 259 259 265 271 267
190 188 178 168 163 167 180 177 179 181 172 142 152 155 150 144 166 171 181 189 190 193 195 193 199 206 206 205 204 204 209 232 255 253 253 246 243 245 253 258 262 268 269
158 169 164 162 165 174 184 185 183 179 162 159 176 174 174 165 169 174 180 189 194 191 194 196 199 207 212 208 208 214 215 223 229 241 253 256 262 258 255 252 251 258 266